(155042) = 2005 RQ5

Discovered at Campo Imperatore on 2005-09-02 by CINEOS.

Orbit

Orbit type: Main Belt

Note: WebGL enabled browser required.

epoch2023-09-13.0
epoch JD2460200.5
perihelion date2020-05-03.26454
perihelion JD2458972.76454
argument of perihelion (°)87.91056
ascending node (°)290.73083
inclination (°)1.81989
eccentricity0.1241425
perihelion distance (AU)2.0695756
Tisserand w.r.t. Jupiter3.5
ΔV w.r.t. Earth (km/sec)9.0
semimajor axis (AU)2.3629136
mean anomaly (°)333.14775
mean daily motion (°/day)0.27135140
aphelion distance (AU)2.656
period (years)3.63
P-vector [x]0.94706633
P-vector [y]0.28047969
P-vector [z]0.15619384
Q-vector [x]-0.31966105
Q-vector [y]0.86888235
Q-vector [z]0.37796861
absolute magnitude16.83
phase slope0.15
uncertainty0
referenceMPEC 2024-A48
observations used624
oppositions14
arc length (days)7643
first opposition used2003
last opposition used2023
residual rms (arc-secs)0.65
perturbers coarse indicatorM-v
perturbers precise indicator003Ek
first observation date used2003-01-03.0
last observation date used2023-12-07.0
computer nameMPCLINUX
JD of orbit computation2456760.621656
perihelion JD uncertainty (days)5.9798E-05
argument of perihelion uncertainty (°)1.2713E-04
ascending node uncertainty (°)1.2632E-04
inclination uncertainty (°)3.4867E-06
eccentricity uncertainty 4.0844E-08
perihelion distance uncertainty (AU)9.7236E-08
Minimum Orbit Intersection Distances (in AU)
for orbit epoch: 2460200.5, reference: E2024-A48
Mercury1.7245
Venus1.34809
Earth1.0716
Mars0.63076
Jupiter2.79999
Saturn6.71866
Uranus15.832
Neptune27.7626

Observations

636 total observations over interval: 2003 01 03.36078 – 2023 12 07.100954
These data are available for download (format description).

Date (UT) J2000 RA J2000 Dec Magn Location Ref
2003 01 03.36078 08 28 56.47 +18 47 01.3 19.9 R 460 – Area 52 Observatory, Nashville MPS 142733
2003 01 03.36942 08 28 56.17 +18 47 05.4 19.1 R 460 – Area 52 Observatory, Nashville MPS 142733
2003 01 04.29654 08 28 04.91 +18 49 13.0 20.9 V 291 – LPL/Spacewatch II MPS 142733
2003 01 04.32127 08 28 03.41 +18 49 16.5 21.9 V 291 – LPL/Spacewatch II MPS 142733
2003 01 04.34593 08 28 02.00 +18 49 20.4 20.9 V 291 – LPL/Spacewatch II MPS 142733
2003 01 29.152930 08 01 36.138 +19 52 22.90 20.20 V 645 – Apache Point-Sloan Digital Sky Survey MPS 142733
2003 01 29.156402 08 01 35.913 +19 52 23.44 20.97   645 – Apache Point-Sloan Digital Sky Survey MPS 142733
2003 01 29.35543 08 01 23.06 +19 52 51.3 20.1   644 – Palomar Mountain/NEAT MPS 142733
2003 01 29.42489 08 01 18.52 +19 53 00.5 20.3   644 – Palomar Mountain/NEAT MPS 142733
2003 01 29.48946 08 01 14.37 +19 53 10.2 20.7   644 – Palomar Mountain/NEAT MPS 142733
2003 02 04.25609 07 55 29.04 +20 05 15.3 20.4   644 – Palomar Mountain/NEAT MPS 142733
2003 02 04.32753 07 55 24.84 +20 05 23.6 21.1   644 – Palomar Mountain/NEAT MPS 142733
2003 02 04.39878 07 55 20.67 +20 05 30.9 20.9   644 – Palomar Mountain/NEAT MPS 142733
2004 04 25.35338 15 06 58.98 -20 18 20.3 20.5 V 691 – Steward Observatory, Kitt Peak-Spacewatch MPS 155318
2004 04 25.38085 15 06 57.40 -20 18 14.4 20.6 V 691 – Steward Observatory, Kitt Peak-Spacewatch MPS 155318
2004 04 25.40869 15 06 55.77 -20 18 08.5 20.8 V 691 – Steward Observatory, Kitt Peak-Spacewatch MPS 155318
2004 05 28.27091 14 35 48.92 -17 50 46.7 20.9 V 691 – Steward Observatory, Kitt Peak-Spacewatch MPS 155318
2004 05 28.30121 14 35 47.46 -17 50 38.5 21.1 V 691 – Steward Observatory, Kitt Peak-Spacewatch MPS 155318
2004 05 28.36821 14 35 44.32 -17 50 20.6 21.6 V 691 – Steward Observatory, Kitt Peak-Spacewatch MPS 155318
2005 08 29.45733 01 10 12.69 +10 33 19.8 19.2 R 644 – Palomar Mountain/NEAT MPS 141205
2005 08 29.46870 01 10 12.56 +10 33 20.6 19.0 R 644 – Palomar Mountain/NEAT MPS 141205
2005 08 29.48525 01 10 12.44 +10 33 21.3 19.0 R 644 – Palomar Mountain/NEAT MPS 141205
2005 09 02.00536 01 09 38.87 +10 35 23.3 19.1 R 599 – Campo Imperatore-CINEOS MPS 141205
2005 09 02.01534 01 09 38.74 +10 35 23.4 19.2 R 599 – Campo Imperatore-CINEOS MPS 141205
2005 09 02.02529 01 09 38.59 +10 35 23.4 19.1 R 599 – Campo Imperatore-CINEOS MPS 141205
2005 09 02.03527 01 09 38.43 +10 35 23.5 18.7 R 599 – Campo Imperatore-CINEOS MPS 141205
2005 09 08.30984 01 07 39.36 +10 32 39.0 19.5   704 – Lincoln Laboratory ETS, New Mexico MPS 141205
2005 09 08.32120 01 07 39.01 +10 32 38.2 20.1   704 – Lincoln Laboratory ETS, New Mexico MPS 141205
2005 09 08.34384 01 07 38.46 +10 32 35.6 19.8   704 – Lincoln Laboratory ETS, New Mexico MPS 141205
2005 09 08.35522 01 07 38.06 +10 32 35.2 20.3   704 – Lincoln Laboratory ETS, New Mexico MPS 141205
2005 09 11.29267 01 06 17.29 +10 28 27.4 18.8   704 – Lincoln Laboratory ETS, New Mexico MPS 141794
2005 09 11.30423 01 06 16.97 +10 28 26.5 19.8   704 – Lincoln Laboratory ETS, New Mexico MPS 141794
2005 09 11.31584 01 06 16.53 +10 28 24.6 19.6   704 – Lincoln Laboratory ETS, New Mexico MPS 141794
2005 09 11.32727 01 06 16.27 +10 28 24.3 19.0   704 – Lincoln Laboratory ETS, New Mexico MPS 141794
2005 09 15.30276 01 04 03.46 +10 19 58.9 19.1 V 703 – Catalina Sky Survey MPS 141794
2005 09 15.31086 01 04 03.14 +10 19 58.0 18.9 V 703 – Catalina Sky Survey MPS 141794
2005 09 15.31895 01 04 02.85 +10 19 56.1 18.5 V 703 – Catalina Sky Survey MPS 141794
2005 09 15.32701 01 04 02.49 +10 19 55.0 19.4 V 703 – Catalina Sky Survey MPS 141794
2005 09 22.46205 00 59 04.35 +09 57 11.7 18.9 R 644 – Palomar Mountain/NEAT MPS 144086
2005 09 22.48531 00 59 03.20 +09 57 06.3 18.8 R 644 – Palomar Mountain/NEAT MPS 144086
2005 09 22.51046 00 59 02.00 +09 57 00.6 19.1 R 644 – Palomar Mountain/NEAT MPS 144086
2005 09 23.30734 00 58 25.17 +09 53 53.8 18.5 V 703 – Catalina Sky Survey MPS 142251
2005 09 23.31859 00 58 24.49 +09 53 51.0 18.6 V 703 – Catalina Sky Survey MPS 142251
2005 09 23.32984 00 58 23.98 +09 53 49.2 18.6 V 703 – Catalina Sky Survey MPS 142251
2005 09 23.34112 00 58 23.37 +09 53 46.1 18.3 V 703 – Catalina Sky Survey MPS 142251
2005 09 29.26918 00 53 26.35 +09 27 28.2 18.7 R 699 – Lowell Observatory-LONEOS MPS 142733
2005 09 29.29203 00 53 25.09 +09 27 21.4   699 – Lowell Observatory-LONEOS MPS 142733
2005 09 29.31488 00 53 23.77 +09 27 14.0   699 – Lowell Observatory-LONEOS MPS 142733
2005 09 29.33769 00 53 22.54 +09 27 07.8   699 – Lowell Observatory-LONEOS MPS 142733
2005 10 01.30883 00 51 38.01 +09 17 18.8 18.4 V 703 – Catalina Sky Survey MPS 144086
2005 10 01.31536 00 51 37.65 +09 17 16.6 18.5 V 703 – Catalina Sky Survey MPS 144086
2005 10 01.32186 00 51 37.29 +09 17 14.7 18.4 V 703 – Catalina Sky Survey MPS 144086
2005 10 01.32838 00 51 36.90 +09 17 12.4 18.3 V 703 – Catalina Sky Survey MPS 144086
2005 10 06.19624 00 47 13.31 +08 51 15.7 18.3 R 699 – Lowell Observatory-LONEOS MPS 144086
2005 10 06.21908 00 47 12.03 +08 51 08.0   699 – Lowell Observatory-LONEOS MPS 144086
2005 10 06.24188 00 47 10.70 +08 51 01.1   699 – Lowell Observatory-LONEOS MPS 144086
2005 10 06.26473 00 47 09.41 +08 50 53.4   699 – Lowell Observatory-LONEOS MPS 144086
2005 10 07.20529 00 46 18.15 +08 45 38.1 18.1   704 – Lincoln Laboratory ETS, New Mexico MPS 144086
2005 10 07.21606 00 46 17.67 +08 45 35.8 18.9   704 – Lincoln Laboratory ETS, New Mexico MPS 144086
2005 10 07.22690 00 46 17.06 +08 45 33.8 19.0   704 – Lincoln Laboratory ETS, New Mexico MPS 144086
2005 10 07.23769 00 46 16.43 +08 45 29.6 19.1   704 – Lincoln Laboratory ETS, New Mexico MPS 144086
2005 10 07.24849 00 46 15.81 +08 45 26.2 18.7   704 – Lincoln Laboratory ETS, New Mexico MPS 144086
2005 10 07.27601 00 46 14.19 +08 45 15.2 18.3 V 703 – Catalina Sky Survey MPS 144086
2005 10 07.28300 00 46 13.83 +08 45 13.4 18.4 V 703 – Catalina Sky Survey MPS 144086
2005 10 07.29002 00 46 13.47 +08 45 10.9 18.6 V 703 – Catalina Sky Survey MPS 144086
2005 10 07.29704 00 46 13.00 +08 45 09.2 18.3 V 703 – Catalina Sky Survey MPS 144086
2005 10 11.27740 00 42 38.62 +08 22 36.8 19.2   704 – Lincoln Laboratory ETS, New Mexico MPS 144086
2005 10 11.28839 00 42 37.90 +08 22 34.7 19.4   704 – Lincoln Laboratory ETS, New Mexico MPS 144086
2005 10 11.29938 00 42 37.32 +08 22 29.6 19.3   704 – Lincoln Laboratory ETS, New Mexico MPS 144086
2005 10 21.22095 00 34 29.11 +07 26 51.1 18.9 R 699 – Lowell Observatory-LONEOS MPS 146115
2005 10 21.24285 00 34 28.12 +07 26 44.2   699 – Lowell Observatory-LONEOS MPS 146115
2005 10 21.26470 00 34 27.08 +07 26 37.1   699 – Lowell Observatory-LONEOS MPS 146115
2005 10 21.28462 00 34 26.23 +07 26 30.8 19.2 R 644 – Palomar Mountain/NEAT MPS 146115
2005 10 21.28660 00 34 26.05 +07 26 29.7   699 – Lowell Observatory-LONEOS MPS 146115
2005 10 21.30535 00 34 25.27 +07 26 24.4 18.9 R 644 – Palomar Mountain/NEAT MPS 146115
2005 10 21.32736 00 34 24.22 +07 26 16.8 18.9 R 644 – Palomar Mountain/NEAT MPS 146115
2005 10 22.28803 00 33 42.58 +07 21 10.5 18.6 R 699 – Lowell Observatory-LONEOS MPS 146115
2005 10 22.30980 00 33 41.67 +07 21 03.7   699 – Lowell Observatory-LONEOS MPS 146115
2005 10 22.33158 00 33 40.68 +07 20 56.8   699 – Lowell Observatory-LONEOS MPS 146115
2005 10 22.35340 00 33 39.74 +07 20 50.3   699 – Lowell Observatory-LONEOS MPS 146115
2005 11 04.20294 00 26 41.48 +06 23 20.4 19.8   704 – Lincoln Laboratory ETS, New Mexico MPS 149599
2005 11 04.21505 00 26 41.22 +06 23 18.2 20.0   704 – Lincoln Laboratory ETS, New Mexico MPS 149599
2005 11 04.22711 00 26 40.96 +06 23 15.8 20.1   704 – Lincoln Laboratory ETS, New Mexico MPS 149599
2005 11 04.23929 00 26 40.68 +06 23 13.0 19.7   704 – Lincoln Laboratory ETS, New Mexico MPS 149599
2005 11 04.25337 00 26 40.31 +06 23 10.3 19.8   704 – Lincoln Laboratory ETS, New Mexico MPS 149599
2005 11 28.09579 00 27 30.02 +05 54 53.0 20.0 V G96 – Mt. Lemmon Survey MPS 152106
2005 11 28.10262 00 27 30.20 +05 54 53.7 20.0 V G96 – Mt. Lemmon Survey MPS 152106
2005 11 28.10938 00 27 30.34 +05 54 54.4 19.9 V G96 – Mt. Lemmon Survey MPS 152106
2005 11 28.11595 00 27 30.45 +05 54 54.9 19.7 V G96 – Mt. Lemmon Survey MPS 152106
